Regional Weather Roundup
Issued by NWS Upton, NY

Current Version | Previous Version | Graphics & Text | Print | Product List | Glossary Off
Versions: 1 2 3 4 5 6 7 8 9 10 11 12 13 14 15 16 17 18 19 20 21 22 23 24 25 26 27 28 29 30 31 32 33 34 35 36 37 38 39 40 41 42 43 44 45 46 47 48 49 50

000
ASUS41 KOKX 211905
RWROKX

REGIONAL WEATHER ROUNDUP
NATIONAL WEATHER SERVICE NEW YORK NY
300 PM EDT SUN SEP 21 2014

NOTE: "FAIR" INDICATES FEW OR NO CLOUDS BELOW 12,000 FEET WITH NO
SIGNIFICANT WEATHER AND/OR OBSTRUCTIONS TO VISIBILITY.

NYZ071-072-176-178-NJZ106-104-212000-
NEW YORK CITY METRO AREA


CITY           SKY/WX    TMP DP  RH WIND       PRES   REMARKS
CENTRAL PARK   CLOUDY    74  67  78 CALM      29.75F HAZE
LAGUARDIA APRT CLOUDY    74  67  78 CALM      29.72F
KENNEDY INTL   CLOUDY    74  68  81 SW8       29.73F
NEWARK/LIBERTY CLOUDY    75  66  73 VRB3      29.70F
BRNX BOT. GARD   N/A     73  66  78 W5        29.72F
TETERBORO      CLOUDY    76  66  71 CALM      29.70F FOG
$$

NYZ177-179-078>081-212000-
LONG ISLAND NEW YORK

CITY           SKY/WX    TMP DP  RH WIND       PRES   REMARKS
FARMINGDALE    CLOUDY    75  68  78 S5        29.72F
ISLIP          CLOUDY    75  69  81 S6        29.70F
SHIRLEY        CLOUDY    76  70  82 S6        29.72F
WESTHAMPTON    CLOUDY    75  70  84 SE8       29.73F
MONTAUK POINT    N/A     75  71  87 E7        29.73F
$$

NYZ052-065-067-212000-
HUDSON VALLEY

CITY           SKY/WX    TMP DP  RH WIND       PRES   REMARKS
WHITE PLAINS   CLOUDY    73  68  84 NW8       29.72F
NEWBURGH       PTSUNNY   77  68  73 SE9       29.73
MONTGOMERY     PTSUNNY   79  65  62 SE7       29.69F
POUGHKEEPSIE   PTSUNNY   78  66  66 SE7       29.69F
ALBANY         PTSUNNY   81  56  42 S15       29.67F
$$

NJZ001-105-106-008-010-013-015-019>022-104-212000-
NEW JERSEY

CITY           SKY/WX    TMP DP  RH WIND       PRES   REMARKS
NEWARK/LIBERTY CLOUDY    75  66  73 VRB3      29.70F
TETERBORO      CLOUDY    76  66  71 CALM      29.70F FOG
CALDWELL       CLOUDY    75  65  70 VRB3      29.71F
MORRISTOWN     PTSUNNY   75  68  78 SW5       29.72F
SOMERVILLE     PTSUNNY   78  64  61 SE3       29.69F
LINDEN         FAIR      79  70  72 SE5       29.73F
SUSSEX         PTSUNNY   81  58  45 VRB6      29.70F
ANDOVER          N/A     78  59  51 CALM      29.71F
TRENTON        PTSUNNY   76  65  68 VRB3      29.70F
MILLVILLE      CLOUDY    77  67  71 NE8       29.71F
ATLANTIC CITY  LGT RAIN  73  69  87 NW13      29.70F
WRIGHTSTOWN    CLOUDY    74  68  82 E3        29.69F
TOMS RIVER     CLOUDY    73  68  83 N7        29.72F
BELMAR         CLOUDY    73  66  78 NW8       29.72F
$$

PAZ047>061-062-071-212000-
EASTERN PENNSYLVANIA

CITY           SKY/WX    TMP DP  RH WIND       PRES   REMARKS
PHILADELPHIA   PTSUNNY   76  66  71 SE5       29.71F
ALLENTOWN      MOSUNNY   76  60  57 W5        29.71F
SCRANTON       MOSUNNY   82  56  40 SW14G22   29.67F
$$

CTZ002-004>006-009-010-012-RIZ004-006-007-MAZ004-011-015-212000-
SOUTHERN NEW ENGLAND
 IN CT

CITY           SKY/WX    TMP DP  RH WIND       PRES   REMARKS
BRADLEY INTL   CLOUDY    78  70  76 S6        29.70F
HARTFORD       CLOUDY    76  69  79 S7        29.71F
DANBURY        CLOUDY    74  68  81 W7        29.74F
WTRBRY/OXFORD  CLOUDY    73  66  78 S7        29.75F
BRIDGEPORT     CLOUDY    75  70  84 S3        29.71F
MERIDEN        CLOUDY    77  68  73 S8        29.71F
NEW HAVEN      CLOUDY    77  70  79 S3        29.71F
CHESTER        MOCLDY    73  72  94 S8        29.73F FOG
GROTON         CLOUDY    72  70  93 SE6       29.72F FOG
WILLIMANTIC    LGT RAIN  75  70  84 MISG      29.73F

 IN RI

CITY           SKY/WX    TMP DP  RH WIND       PRES   REMARKS
PROVIDENCE     CLOUDY    73  69  87 S12       29.74F
BLOCK ISLAND   CLOUDY    73  68  83 SE13      29.74F
WESTERLY       CLOUDY    73  70  90 SE9       29.73F

 IN MA

CITY           SKY/WX    TMP DP  RH WIND       PRES   REMARKS
BOSTON         CLOUDY    78  67  68 S9        29.73F
WORCESTER      CLOUDY    72  68  87 S9        29.76F
WESTFIELD      CLOUDY    76  69  79 S5        29.72F
PROVINCETOWN   CLOUDY    73  68  83 SE9       29.77F
NANTUCKET      CLOUDY    70  67  90 SE14G20   29.75F
$$

ANZ330-335-338-340-345-350-353-355-212000-
COASTAL MARINE OBSERVATIONS


STATION/POSITION TIME  SKY/WX   TEMP    WIND        PRES    VSBY  WAVE
                                AIR SEA DIR/SP/G                  HT/PER
                 (UTC)          (F)     (DEG/KT/KT) (MB)    (MI)  (FT/S)
NY HARB ENTRANCE 1900            71 71   20/  2/  2 1006.8          4/ 8
4S FIRE IS       1900               71                N/A           4/ 8
20S FIRE ISLAND  1900            70 70  110/  2/  2 1006.5          4/ 8
23SW MTP         1900                                 N/A           5/ 6
HUDSON CANYON    1900            70 71   70/ 10/ 12 1005.2          5/ 7
EXECUTION ROCKS  1900            72 71   CALM  /  2   N/A
WESTERN LI SOUND 1900            72      20/  2/  4   N/A           1
CENTRAL LI SOUND 1800            71 71  150/  8/  8   N/A           1
EASTERN LI SOUND 1800            70 68  130/ 10/ 12   N/A
ROBBINS REEF     1900            72     280/  4/  4 1005.4
$$


>>>>>>>>>>>>>>>>>>>>>>>>>>>> KEY <<<<<<<<<<<<<<<<<<<<<<<<<<<
>                                                          <
>     SKY/WX - SKY CONDITION/PRESENT WEATHER               <
>     TMP    - TEMPERATURE IN FAHRENHEIT                   <
>     DP     - DEWPOINT IN FAHRENHEIT                      <
>     RH     - RELATIVE HUMIDITY IN PERCENT                <
>     WIND   - DIRECTION AND SPEED IN MPH                  <
>     PRES   - MEAN SEA LEVEL PRESSURE IN INCHES OF HG     <
>     WCI    - WIND CHILL INDEX                            <
>     VSB    - VISIBILITY IN MILES                         <
>     HX     - HEAT INDEX                                  <
>     TC     - TEMPERATURE IN CELSIUS                      <
>     VRB    - VARIABLE WIND DIRECTION                     <
>                                                          <
>>>>>>>>>>>>>>>>>>>>>>>>>>>> KEY <<<<<<<<<<<<<<<<<<<<<<<<<<<





USA.gov is the U.S. government's official web portal to all federal, state and local government web resources and services.